STARLINK-32509, 62042

Orbit data source: Space-Track

STARLINK-32509, 62042 is a payload satellite owned by SpaceX/Seattle (US) in LEO that was launched on Thu, 21 Nov 2024 UTC via an FALCON 9 launch vehicle from the Air Force Eastern Test Range (AFETR). Payloads include a variety of satellites, spacecraft, and rockets equipped with specific instruments for various scientific and technological missions. These include communications satellites like Starlink; space stations such as the ISS; scientific satellites like the Hubble; Earth observation satellites from companies like Planet Labs, Umbra, and HawkEye 360; GPS; miniature CubeSats for education and research; and military/defense satellites.

Loading next visibility...
STARLINK-32509 details
Identifier
62042, 2024-216L
Orbit
LEO
Last TLE update9 hours ago
Origin
Flag of USSpaceX/Seattle (US)
ManufacturerSpaceX/Seattle
MissionOperational spacecraft
Bus & MotorSTARLINK V2M, Unknown motor
Mass730 kg wet, ~700 kg dry
Launch date (UTC)
2024-11-21 (3 weeks ago)
Launch vehicle
FALCON 9
Launch site
Air Force Eastern Test Range (AFETR)
Object type
Payload
Rocket body
Debris
Shape & HBRUnknown
Radar Cross SectionLarge (>1 m²)

Expand to show TLE details & history

TLE from 9 hours ago
0 STARLINK-32509
1 62042U 24216L   24348.50002315 -.00007555  00000-0 -12304-3 0  9993
2 62042  42.9996 307.3782 0001294 269.1217 200.2938 15.50587779  4584
Epoch: 2024-12-13T12:00Z
Definitive object data (Epoch: 2024-12-13T12:00:02Z)
Latitude40.18476°
Longitude160.45462°
Altitude418.324 km
Speed7.665 km/s
True Right ascension04h 12m 30s
True Declination40° 00' 25"
Sunlit
Object was in full shadow at TLE epoch
Visualization TLE readout
Latitude13.22292°
Longitude-152.12135°
Altitude414.361 km
Speed7.665 km/s
Apparent Right ascension07h 38m 54s
Apparent Declination-12° 25' 19"
Sunlit
Object is in full shadow
Visualization observer readout
Local Sidereal Time20:01:28
Azimuth11.822° NNE
Elevation-62.059°
Doppler factor1
Orbital elements
Apogee altitude417.853 km
Perigee altitude416.094 km
Semi-major axis6,795.11 km
Eccentricity0.0001294
Inclination42.9996°
RAAN307.3782°
Arg. of periapsis269.1217°
True anomaly200.28866°
Mean anomaly200.2938°
Eccentric anomaly200.29123°
Mean motion3.87479 °/min
BSTAR-0.00012304
Orbital period92.91 mins
Loading maneuver chart data...
Loading historical data...
Loading historical data...
Loading historical data...
Loading historical data...
Loading historical data...
Loading historical data...
Loading historical data...

STARLINK-32509 Visibility forecast

Observer location: undefined°, undefined

Span
Click to sort rows by Start time (UTC) header in descending order
Start Az.
Max El. time (UTC)
Max El. Az.
Max El.
End time (UTC)
End Az.
4 mins2024-12-14 01:42:43.516Z239.167° WSW2024-12-14 01:43:43.516Z214.244° SW42.618°2024-12-14 01:46:43.516Z74.37° E
5 mins2024-12-14 03:19:43.516Z289.631° WNW2024-12-14 03:21:43.516Z5.129° NNE36.633°2024-12-14 03:24:43.516Z72.374° E
4 mins2024-12-14 04:57:43.516Z297.476° NW2024-12-14 04:59:43.516Z66.182° ENE40.021°2024-12-14 05:01:43.516Z96.017° ESE
4 mins2024-12-14 06:34:43.516Z260.634° W2024-12-14 06:36:43.516Z202.442° SSW26.698°2024-12-14 06:38:43.516Z154.209° SSE
|